owner,sensor,date,latitude,longitude,vertical_datum,sea_water_temperature,qcFlag 
ENP,ioos.station.NOAA.NDBC:BOBF1:1,2019-09-01T00:00:00Z,25.0270,-80.6810,1.0,31.24,11111222 
ENP,ioos.station.NOAA.NDBC:BOBF1:1,2019-09-01T01:00:00Z,25.0270,-80.6810,1.0,30.92,11111222 
ENP,ioos.station.NOAA.NDBC:BOBF1:1,2019-09-01T02:00:00Z,25.0270,-80.6810,1.0,30.51,11111222 
ENP,ioos.station.NOAA.NDBC:BOBF1:1,2019-09-01T04:00:00Z,25.0270,-80.6810,1.0,30.55,11111222 
ENP,ioos.station.NOAA.NDBC:BOBF1:1,2019-09-06T14:00:00Z,25.0270,-80.6810,1.0,29.6,11111222 
ENP,ioos.station.NOAA.NDBC:BOBF1:1,2019-09-06T15:00:00Z,25.0270,-80.6810,1.0,30.05,11111222 
ENP,ioos.station.NOAA.NDBC:BOBF1:1,2019-09-06T16:00:00Z,25.0270,-80.6810,1.0,30.49,11111222 
ENP,ioos.station.NOAA.NDBC:BOBF1:1,2019-09-06T18:00:00Z,25.0270,-80.6810,1.0,31.67,11111222 
ENP,ioos.station.NOAA.NDBC:BOBF1:1,2019-09-06T19:00:00Z,25.0270,-80.6810,1.0,32.17,11111222 
ENP,ioos.station.NOAA.NDBC:BOBF1:1,2019-09-06T20:00:00Z,25.0270,-80.6810,1.0,32.56,11111222 
ENP,ioos.station.NOAA.NDBC:BOBF1:1,2019-09-06T21:00:00Z,25.0270,-80.6810,1.0,32.42,11111222 
ENP,ioos.station.NOAA.NDBC:BOBF1:1,2019-09-06T22:00:00Z,25.0270,-80.6810,1.0,32.36,11111222 
ENP,ioos.station.NOAA.NDBC:BOBF1:1,2019-09-06T23:00:00Z,25.0270,-80.6810,1.0,32.27,11111222 
ENP,ioos.station.NOAA.NDBC:BOBF1:1,2019-09-07T00:00:00Z,25.0270,-80.6810,1.0,32.17,11111222 
ENP,ioos.station.NOAA.NDBC:BOBF1:1,2019-09-07T02:00:00Z,25.0270,-80.6810,1.0,31.92,11111222 
ENP,ioos.station.NOAA.NDBC:BOBF1:1,2019-09-07T04:00:00Z,25.0270,-80.6810,1.0,31.74,11111222 
ENP,ioos.station.NOAA.NDBC:BOBF1:1,2019-09-07T06:00:00Z,25.0270,-80.6810,1.0,31.32,11111222 
ENP,ioos.station.NOAA.NDBC:BOBF1:1,2019-09-07T07:00:00Z,25.0270,-80.6810,1.0,31.08,11111222 
ENP,ioos.station.NOAA.NDBC:BOBF1:1,2019-09-07T08:00:00Z,25.0270,-80.6810,1.0,31.02,11111222 
ENP,ioos.station.NOAA.NDBC:BOBF1:1,2019-09-07T09:00:00Z,25.0270,-80.6810,1.0,30.56,11111222 
ENP,ioos.station.NOAA.NDBC:BOBF1:1,2019-09-07T10:00:00Z,25.0270,-80.6810,1.0,30.63,11111222 
ENP,ioos.station.NOAA.NDBC:BOBF1:1,2019-09-07T11:00:00Z,25.0270,-80.6810,1.0,30.57,11111222 
ENP,ioos.station.NOAA.NDBC:BOBF1:1,2019-09-07T12:00:00Z,25.0270,-80.6810,1.0,30.49,11111222 
ENP,ioos.station.NOAA.NDBC:BOBF1:1,2019-09-07T13:00:00Z,25.0270,-80.6810,1.0,30.49,11111222 
ENP,ioos.station.NOAA.NDBC:BOBF1:1,2019-09-07T14:00:00Z,25.0270,-80.6810,1.0,30.73,11111222 
ENP,ioos.station.NOAA.NDBC:BOBF1:1,2019-09-07T15:00:00Z,25.0270,-80.6810,1.0,30.83,11111222 
ENP,ioos.station.NOAA.NDBC:BOBF1:1,2019-09-07T16:00:00Z,25.0270,-80.6810,1.0,30.95,11111222 
ENP,ioos.station.NOAA.NDBC:BOBF1:1,2019-09-07T18:00:00Z,25.0270,-80.6810,1.0,32.01,11111222 
ENP,ioos.station.NOAA.NDBC:BOBF1:1,2019-09-07T19:00:00Z,25.0270,-80.6810,1.0,32.37,11111222 
ENP,ioos.station.NOAA.NDBC:BOBF1:1,2019-09-07T20:00:00Z,25.0270,-80.6810,1.0,32.57,11111222 
ENP,ioos.station.NOAA.NDBC:BOBF1:1,2019-09-07T21:00:00Z,25.0270,-80.6810,1.0,32.67,11111222 
ENP,ioos.station.NOAA.NDBC:BOBF1:1,2019-09-07T22:00:00Z,25.0270,-80.6810,1.0,32.68,11111222 
ENP,ioos.station.NOAA.NDBC:BOBF1:1,2019-09-07T23:00:00Z,25.0270,-80.6810,1.0,32.76,11111222 
ENP,ioos.station.NOAA.NDBC:BOBF1:1,2019-09-08T00:00:00Z,25.0270,-80.6810,1.0,32.6,11111222 
ENP,ioos.station.NOAA.NDBC:BOBF1:1,2019-09-08T01:00:00Z,25.0270,-80.6810,1.0,32.31,11111222 
ENP,ioos.station.NOAA.NDBC:BOBF1:1,2019-09-08T02:00:00Z,25.0270,-80.6810,1.0,31.68,11111222 
ENP,ioos.station.NOAA.NDBC:BOBF1:1,2019-09-08T04:00:00Z,25.0270,-80.6810,1.0,31.21,11111222 
ENP,ioos.station.NOAA.NDBC:BOBF1:1,2019-09-08T06:00:00Z,25.0270,-80.6810,1.0,30.83,11111222 
ENP,ioos.station.NOAA.NDBC:BOBF1:1,2019-09-08T07:00:00Z,25.0270,-80.6810,1.0,30.7,11111222 
ENP,ioos.station.NOAA.NDBC:BOBF1:1,2019-09-08T08:00:00Z,25.0270,-80.6810,1.0,30.91,11111222 
ENP,ioos.station.NOAA.NDBC:BOBF1:1,2019-09-08T09:00:00Z,25.0270,-80.6810,1.0,30.94,11111222 
ENP,ioos.station.NOAA.NDBC:BOBF1:1,2019-09-08T10:00:00Z,25.0270,-80.6810,1.0,30.92,11111222 
ENP,ioos.station.NOAA.NDBC:BOBF1:1,2019-09-08T11:00:00Z,25.0270,-80.6810,1.0,31.11,11111222 
ENP,ioos.station.NOAA.NDBC:BOBF1:1,2019-09-08T12:00:00Z,25.0270,-80.6810,1.0,31.23,11111222 
ENP,ioos.station.NOAA.NDBC:BOBF1:1,2019-09-08T13:00:00Z,25.0270,-80.6810,1.0,31.15,11111222 
ENP,ioos.station.NOAA.NDBC:BOBF1:1,2019-09-08T14:00:00Z,25.0270,-80.6810,1.0,31.24,11111222 
ENP,ioos.station.NOAA.NDBC:BOBF1:1,2019-09-08T15:00:00Z,25.0270,-80.6810,1.0,31.74,11111222 
ENP,ioos.station.NOAA.NDBC:BOBF1:1,2019-09-08T16:00:00Z,25.0270,-80.6810,1.0,31.87,11111222 
ENP,ioos.station.NOAA.NDBC:BOBF1:1,2019-09-08T18:00:00Z,25.0270,-80.6810,1.0,32.29,11111222 
ENP,ioos.station.NOAA.NDBC:BOBF1:1,2019-09-08T19:00:00Z,25.0270,-80.6810,1.0,32.56,11111222 
ENP,ioos.station.NOAA.NDBC:BOBF1:1,2019-09-08T20:00:00Z,25.0270,-80.6810,1.0,32.52,11111222 
ENP,ioos.station.NOAA.NDBC:BOBF1:1,2019-09-08T21:00:00Z,25.0270,-80.6810,1.0,32.58,11111222 
ENP,ioos.station.NOAA.NDBC:BOBF1:1,2019-09-08T22:00:00Z,25.0270,-80.6810,1.0,32.57,11111222 
ENP,ioos.station.NOAA.NDBC:BOBF1:1,2019-09-08T23:00:00Z,25.0270,-80.6810,1.0,32.46,11111222 
ENP,ioos.station.NOAA.NDBC:BOBF1:1,2019-09-09T00:00:00Z,25.0270,-80.6810,1.0,32.29,11111222 
ENP,ioos.station.NOAA.NDBC:BOBF1:1,2019-09-09T01:00:00Z,25.0270,-80.6810,1.0,32.13,11111222 
ENP,ioos.station.NOAA.NDBC:BOBF1:1,2019-09-09T02:00:00Z,25.0270,-80.6810,1.0,31.65,11111222 
ENP,ioos.station.NOAA.NDBC:BOBF1:1,2019-09-09T04:00:00Z,25.0270,-80.6810,1.0,31.13,11111222 
ENP,ioos.station.NOAA.NDBC:BOBF1:1,2019-09-09T06:00:00Z,25.0270,-80.6810,1.0,30.92,11111222 
ENP,ioos.station.NOAA.NDBC:BOBF1:1,2019-09-09T07:00:00Z,25.0270,-80.6810,1.0,30.87,11111222 
ENP,ioos.station.NOAA.NDBC:BOBF1:1,2019-09-09T08:00:00Z,25.0270,-80.6810,1.0,30.79,11111222 
ENP,ioos.station.NOAA.NDBC:BOBF1:1,2019-09-09T09:00:00Z,25.0270,-80.6810,1.0,30.68,11111222 
ENP,ioos.station.NOAA.NDBC:BOBF1:1,2019-09-09T10:00:00Z,25.0270,-80.6810,1.0,30.5,11111222 
ENP,ioos.station.NOAA.NDBC:BOBF1:1,2019-09-09T11:00:00Z,25.0270,-80.6810,1.0,30.26,11111222 
ENP,ioos.station.NOAA.NDBC:BOBF1:1,2019-09-09T12:00:00Z,25.0270,-80.6810,1.0,30.25,11111222 
ENP,ioos.station.NOAA.NDBC:BOBF1:1,2019-09-09T13:00:00Z,25.0270,-80.6810,1.0,30.72,11111222 
ENP,ioos.station.NOAA.NDBC:BOBF1:1,2019-09-09T14:00:00Z,25.0270,-80.6810,1.0,31.06,11111222 
ENP,ioos.station.NOAA.NDBC:BOBF1:1,2019-09-09T15:00:00Z,25.0270,-80.6810,1.0,31.47,11111222 
ENP,ioos.station.NOAA.NDBC:BOBF1:1,2019-09-09T16:00:00Z,25.0270,-80.6810,1.0,31.41,11111222 
ENP,ioos.station.NOAA.NDBC:BOBF1:1,2019-09-09T21:00:00Z,25.0270,-80.6810,1.0,31.58,11111222 
ENP,ioos.station.NOAA.NDBC:BOBF1:1,2019-09-09T22:00:00Z,25.0270,-80.6810,1.0,31.38,11111222 
ENP,ioos.station.NOAA.NDBC:BOBF1:1,2019-09-09T23:00:00Z,25.0270,-80.6810,1.0,31.17,11111222 
ENP,ioos.station.NOAA.NDBC:BOBF1:1,2019-09-10T00:00:00Z,25.0270,-80.6810,1.0,30.91,11111222 
ENP,ioos.station.NOAA.NDBC:BOBF1:1,2019-09-10T01:00:00Z,25.0270,-80.6810,1.0,30.53,11111222 
ENP,ioos.station.NOAA.NDBC:BOBF1:1,2019-09-10T02:00:00Z,25.0270,-80.6810,1.0,30.22,11111222 
ENP,ioos.station.NOAA.NDBC:BOBF1:1,2019-09-10T04:00:00Z,25.0270,-80.6810,1.0,29.69,11111222 
ENP,ioos.station.NOAA.NDBC:BOBF1:1,2019-09-10T06:00:00Z,25.0270,-80.6810,1.0,30.04,11111222 
ENP,ioos.station.NOAA.NDBC:BOBF1:1,2019-09-10T07:00:00Z,25.0270,-80.6810,1.0,29.98,11111222 
ENP,ioos.station.NOAA.NDBC:BOBF1:1,2019-09-10T08:00:00Z,25.0270,-80.6810,1.0,29.89,11111222 
ENP,ioos.station.NOAA.NDBC:BOBF1:1,2019-09-10T09:00:00Z,25.0270,-80.6810,1.0,29.75,11111222 
ENP,ioos.station.NOAA.NDBC:BOBF1:1,2019-09-10T10:00:00Z,25.0270,-80.6810,1.0,29.57,11111222 
ENP,ioos.station.NOAA.NDBC:BOBF1:1,2019-09-10T11:00:00Z,25.0270,-80.6810,1.0,29.4,11111222 
ENP,ioos.station.NOAA.NDBC:BOBF1:1,2019-09-10T12:00:00Z,25.0270,-80.6810,1.0,28.65,11111222 
ENP,ioos.station.NOAA.NDBC:BOBF1:1,2019-09-10T13:00:00Z,25.0270,-80.6810,1.0,28.65,11111222 
ENP,ioos.station.NOAA.NDBC:BOBF1:1,2019-09-10T14:00:00Z,25.0270,-80.6810,1.0,29.63,11111222 
ENP,ioos.station.NOAA.NDBC:BOBF1:1,2019-09-10T15:00:00Z,25.0270,-80.6810,1.0,30.11,11111222 
ENP,ioos.station.NOAA.NDBC:BOBF1:1,2019-09-10T16:00:00Z,25.0270,-80.6810,1.0,30.71,11111222 
ENP,ioos.station.NOAA.NDBC:BOBF1:1,2019-09-10T18:00:00Z,25.0270,-80.6810,1.0,31.07,11111222 
ENP,ioos.station.NOAA.NDBC:BOBF1:1,2019-09-10T19:00:00Z,25.0270,-80.6810,1.0,30.84,11111222 
ENP,ioos.station.NOAA.NDBC:BOBF1:1,2019-09-10T20:00:00Z,25.0270,-80.6810,1.0,30.93,11111222 
ENP,ioos.station.NOAA.NDBC:BOBF1:1,2019-09-10T21:00:00Z,25.0270,-80.6810,1.0,31.02,11111222 
ENP,ioos.station.NOAA.NDBC:BOBF1:1,2019-09-10T22:00:00Z,25.0270,-80.6810,1.0,30.89,11111222 
ENP,ioos.station.NOAA.NDBC:BOBF1:1,2019-09-10T23:00:00Z,25.0270,-80.6810,1.0,30.62,11111222 
ENP,ioos.station.NOAA.NDBC:BOBF1:1,2019-09-11T00:00:00Z,25.0270,-80.6810,1.0,30.37,11111222 
ENP,ioos.station.NOAA.NDBC:BOBF1:1,2019-09-11T01:00:00Z,25.0270,-80.6810,1.0,30.16,11111222 
ENP,ioos.station.NOAA.NDBC:BOBF1:1,2019-09-11T02:00:00Z,25.0270,-80.6810,1.0,29.97,11111222 
ENP,ioos.station.NOAA.NDBC:BOBF1:1,2019-09-11T04:00:00Z,25.0270,-80.6810,1.0,29.61,11111222 
ENP,ioos.station.NOAA.NDBC:BOBF1:1,2019-09-11T06:00:00Z,25.0270,-80.6810,1.0,29.37,11111222 
ENP,ioos.station.NOAA.NDBC:BOBF1:1,2019-09-11T07:00:00Z,25.0270,-80.6810,1.0,29.25,11111222 
ENP,ioos.station.NOAA.NDBC:BOBF1:1,2019-09-11T08:00:00Z,25.0270,-80.6810,1.0,29.17,11111222 
ENP,ioos.station.NOAA.NDBC:BOBF1:1,2019-09-11T09:00:00Z,25.0270,-80.6810,1.0,29.09,11111222 
ENP,ioos.station.NOAA.NDBC:BOBF1:1,2019-09-11T10:00:00Z,25.0270,-80.6810,1.0,29.01,11111222 
ENP,ioos.station.NOAA.NDBC:BOBF1:1,2019-09-11T11:00:00Z,25.0270,-80.6810,1.0,28.93,11111222 
ENP,ioos.station.NOAA.NDBC:BOBF1:1,2019-09-11T12:00:00Z,25.0270,-80.6810,1.0,28.84,11111222 
ENP,ioos.station.NOAA.NDBC:BOBF1:1,2019-09-11T13:00:00Z,25.0270,-80.6810,1.0,28.82,11111222 
ENP,ioos.station.NOAA.NDBC:BOBF1:1,2019-09-11T14:00:00Z,25.0270,-80.6810,1.0,28.95,11111222 
ENP,ioos.station.NOAA.NDBC:BOBF1:1,2019-09-11T15:00:00Z,25.0270,-80.6810,1.0,29.15,11111222 
ENP,ioos.station.NOAA.NDBC:BOBF1:1,2019-09-11T16:00:00Z,25.0270,-80.6810,1.0,29.17,11111222 
ENP,ioos.station.NOAA.NDBC:BOBF1:1,2019-09-11T19:00:00Z,25.0270,-80.6810,1.0,30.24,11111222 
ENP,ioos.station.NOAA.NDBC:BOBF1:1,2019-09-11T20:00:00Z,25.0270,-80.6810,1.0,30.18,11111222 
ENP,ioos.station.NOAA.NDBC:BOBF1:1,2019-09-11T21:00:00Z,25.0270,-80.6810,1.0,30.05,11111222 
ENP,ioos.station.NOAA.NDBC:BOBF1:1,2019-09-11T22:00:00Z,25.0270,-80.6810,1.0,29.83,11111222 
ENP,ioos.station.NOAA.NDBC:BOBF1:1,2019-09-11T23:00:00Z,25.0270,-80.6810,1.0,29.6,11111222 
ENP,ioos.station.NOAA.NDBC:BOBF1:1,2019-09-12T00:00:00Z,25.0270,-80.6810,1.0,29.38,11111222 
ENP,ioos.station.NOAA.NDBC:BOBF1:1,2019-09-12T01:00:00Z,25.0270,-80.6810,1.0,29.19,11111222 
ENP,ioos.station.NOAA.NDBC:BOBF1:1,2019-09-12T02:00:00Z,25.0270,-80.6810,1.0,29.04,11111222 
ENP,ioos.station.NOAA.NDBC:BOBF1:1,2019-09-12T04:00:00Z,25.0270,-80.6810,1.0,28.63,11111222 
ENP,ioos.station.NOAA.NDBC:BOBF1:1,2019-09-12T06:00:00Z,25.0270,-80.6810,1.0,27.92,11111222 
ENP,ioos.station.NOAA.NDBC:BOBF1:1,2019-09-12T07:00:00Z,25.0270,-80.6810,1.0,27.9,11111222 
ENP,ioos.station.NOAA.NDBC:BOBF1:1,2019-09-12T08:00:00Z,25.0270,-80.6810,1.0,27.78,11111222 
ENP,ioos.station.NOAA.NDBC:BOBF1:1,2019-09-12T09:00:00Z,25.0270,-80.6810,1.0,27.93,11111222 
ENP,ioos.station.NOAA.NDBC:BOBF1:1,2019-09-12T10:00:00Z,25.0270,-80.6810,1.0,27.84,11111222 
ENP,ioos.station.NOAA.NDBC:BOBF1:1,2019-09-12T11:00:00Z,25.0270,-80.6810,1.0,27.45,11111222 
ENP,ioos.station.NOAA.NDBC:BOBF1:1,2019-09-12T12:00:00Z,25.0270,-80.6810,1.0,27.93,11111222 
ENP,ioos.station.NOAA.NDBC:BOBF1:1,2019-09-12T13:00:00Z,25.0270,-80.6810,1.0,28.04,11111222 
ENP,ioos.station.NOAA.NDBC:BOBF1:1,2019-09-12T14:00:00Z,25.0270,-80.6810,1.0,28.4,11111222 
ENP,ioos.station.NOAA.NDBC:BOBF1:1,2019-09-12T15:00:00Z,25.0270,-80.6810,1.0,28.81,11111222 
ENP,ioos.station.NOAA.NDBC:BOBF1:1,2019-09-13T19:00:00Z,25.0270,-80.6810,1.0,31.1,11111222 
ENP,ioos.station.NOAA.NDBC:BOBF1:1,2019-09-13T20:00:00Z,25.0270,-80.6810,1.0,30.78,11111222 
ENP,ioos.station.NOAA.NDBC:BOBF1:1,2019-09-13T21:00:00Z,25.0270,-80.6810,1.0,29.78,11111222 
ENP,ioos.station.NOAA.NDBC:BOBF1:1,2019-09-13T22:00:00Z,25.0270,-80.6810,1.0,29.47,11111222 
ENP,ioos.station.NOAA.NDBC:BOBF1:1,2019-09-13T23:00:00Z,25.0270,-80.6810,1.0,29.26,11111222 
ENP,ioos.station.NOAA.NDBC:BOBF1:1,2019-09-14T00:00:00Z,25.0270,-80.6810,1.0,29.02,11111222 
ENP,ioos.station.NOAA.NDBC:BOBF1:1,2019-09-14T02:00:00Z,25.0270,-80.6810,1.0,28.78,11111222 
ENP,ioos.station.NOAA.NDBC:BOBF1:1,2019-09-14T04:00:00Z,25.0270,-80.6810,1.0,28.58,11111222 
ENP,ioos.station.NOAA.NDBC:BOBF1:1,2019-09-14T05:00:00Z,25.0270,-80.6810,1.0,28.69,11111222 
ENP,ioos.station.NOAA.NDBC:BOBF1:1,2019-09-14T06:00:00Z,25.0270,-80.6810,1.0,28.85,11111222 
ENP,ioos.station.NOAA.NDBC:BOBF1:1,2019-09-14T07:00:00Z,25.0270,-80.6810,1.0,28.84,11111222 
ENP,ioos.station.NOAA.NDBC:BOBF1:1,2019-09-14T08:00:00Z,25.0270,-80.6810,1.0,28.51,11111222 
ENP,ioos.station.NOAA.NDBC:BOBF1:1,2019-09-14T09:00:00Z,25.0270,-80.6810,1.0,28.14,11111222 
ENP,ioos.station.NOAA.NDBC:BOBF1:1,2019-09-14T10:00:00Z,25.0270,-80.6810,1.0,28.05,11111222 
ENP,ioos.station.NOAA.NDBC:BOBF1:1,2019-09-14T11:00:00Z,25.0270,-80.6810,1.0,27.95,11111222 
ENP,ioos.station.NOAA.NDBC:BOBF1:1,2019-09-14T12:00:00Z,25.0270,-80.6810,1.0,27.91,11111222 
ENP,ioos.station.NOAA.NDBC:BOBF1:1,2019-09-14T13:00:00Z,25.0270,-80.6810,1.0,28.37,11111222 
ENP,ioos.station.NOAA.NDBC:BOBF1:1,2019-09-14T14:00:00Z,25.0270,-80.6810,1.0,28.66,11111222 
ENP,ioos.station.NOAA.NDBC:BOBF1:1,2019-09-14T15:00:00Z,25.0270,-80.6810,1.0,29.57,11111222 
ENP,ioos.station.NOAA.NDBC:BOBF1:1,2019-09-14T16:00:00Z,25.0270,-80.6810,1.0,29.71,11111222 
ENP,ioos.station.NOAA.NDBC:BOBF1:1,2019-09-14T17:00:00Z,25.0270,-80.6810,1.0,30.16,11111222 
ENP,ioos.station.NOAA.NDBC:BOBF1:1,2019-09-14T18:00:00Z,25.0270,-80.6810,1.0,30.49,11111222 
ENP,ioos.station.NOAA.NDBC:BOBF1:1,2019-09-14T19:00:00Z,25.0270,-80.6810,1.0,30.57,11111222 
ENP,ioos.station.NOAA.NDBC:BOBF1:1,2019-09-14T20:00:00Z,25.0270,-80.6810,1.0,30.68,11111222 
ENP,ioos.station.NOAA.NDBC:BOBF1:1,2019-09-14T21:00:00Z,25.0270,-80.6810,1.0,30.93,11111222 
ENP,ioos.station.NOAA.NDBC:BOBF1:1,2019-09-14T22:00:00Z,25.0270,-80.6810,1.0,30.99,11111222 
ENP,ioos.station.NOAA.NDBC:BOBF1:1,2019-09-14T23:00:00Z,25.0270,-80.6810,1.0,30.96,11111222 
ENP,ioos.station.NOAA.NDBC:BOBF1:1,2019-09-15T00:00:00Z,25.0270,-80.6810,1.0,30.81,11111222 
ENP,ioos.station.NOAA.NDBC:BOBF1:1,2019-09-15T02:00:00Z,25.0270,-80.6810,1.0,30.41,11111222 
ENP,ioos.station.NOAA.NDBC:BOBF1:1,2019-09-15T04:00:00Z,25.0270,-80.6810,1.0,30.27,11111222 
ENP,ioos.station.NOAA.NDBC:BOBF1:1,2019-09-15T05:00:00Z,25.0270,-80.6810,1.0,30.2,11111222 
ENP,ioos.station.NOAA.NDBC:BOBF1:1,2019-09-15T06:00:00Z,25.0270,-80.6810,1.0,30.0,11111222 
ENP,ioos.station.NOAA.NDBC:BOBF1:1,2019-09-15T07:00:00Z,25.0270,-80.6810,1.0,29.85,11111222 
ENP,ioos.station.NOAA.NDBC:BOBF1:1,2019-09-15T08:00:00Z,25.0270,-80.6810,1.0,29.43,11111222 
ENP,ioos.station.NOAA.NDBC:BOBF1:1,2019-09-15T09:00:00Z,25.0270,-80.6810,1.0,29.24,11111222 
ENP,ioos.station.NOAA.NDBC:BOBF1:1,2019-09-15T10:00:00Z,25.0270,-80.6810,1.0,29.2,11111222 
ENP,ioos.station.NOAA.NDBC:BOBF1:1,2019-09-15T11:00:00Z,25.0270,-80.6810,1.0,29.13,11111222 
ENP,ioos.station.NOAA.NDBC:BOBF1:1,2019-09-15T12:00:00Z,25.0270,-80.6810,1.0,29.1,11111222 
ENP,ioos.station.NOAA.NDBC:BOBF1:1,2019-09-15T13:00:00Z,25.0270,-80.6810,1.0,29.43,11111222 
ENP,ioos.station.NOAA.NDBC:BOBF1:1,2019-09-15T14:00:00Z,25.0270,-80.6810,1.0,29.9,11111222 
ENP,ioos.station.NOAA.NDBC:BOBF1:1,2019-09-15T15:00:00Z,25.0270,-80.6810,1.0,29.98,11111222 
ENP,ioos.station.NOAA.NDBC:BOBF1:1,2019-09-15T16:00:00Z,25.0270,-80.6810,1.0,30.27,11111222 
ENP,ioos.station.NOAA.NDBC:BOBF1:1,2019-09-15T17:00:00Z,25.0270,-80.6810,1.0,30.46,11111222 
ENP,ioos.station.NOAA.NDBC:BOBF1:1,2019-09-15T18:00:00Z,25.0270,-80.6810,1.0,30.71,11111222 
ENP,ioos.station.NOAA.NDBC:BOBF1:1,2019-09-15T19:00:00Z,25.0270,-80.6810,1.0,31.08,11111222 
ENP,ioos.station.NOAA.NDBC:BOBF1:1,2019-09-15T20:00:00Z,25.0270,-80.6810,1.0,31.39,11111222 
ENP,ioos.station.NOAA.NDBC:BOBF1:1,2019-09-15T21:00:00Z,25.0270,-80.6810,1.0,32.29,11111222 
ENP,ioos.station.NOAA.NDBC:BOBF1:1,2019-09-15T22:00:00Z,25.0270,-80.6810,1.0,32.64,11111222 
ENP,ioos.station.NOAA.NDBC:BOBF1:1,2019-09-15T23:00:00Z,25.0270,-80.6810,1.0,32.72,11111222 
ENP,ioos.station.NOAA.NDBC:BOBF1:1,2019-09-16T00:00:00Z,25.0270,-80.6810,1.0,32.82,11111222 
ENP,ioos.station.NOAA.NDBC:BOBF1:1,2019-09-16T01:00:00Z,25.0270,-80.6810,1.0,31.49,11111222 
ENP,ioos.station.NOAA.NDBC:BOBF1:1,2019-09-16T02:00:00Z,25.0270,-80.6810,1.0,31.69,11111222 
ENP,ioos.station.NOAA.NDBC:BOBF1:1,2019-09-16T04:00:00Z,25.0270,-80.6810,1.0,30.73,11111222 
ENP,ioos.station.NOAA.NDBC:BOBF1:1,2019-09-16T05:00:00Z,25.0270,-80.6810,1.0,30.69,11111222 
ENP,ioos.station.NOAA.NDBC:BOBF1:1,2019-09-16T06:00:00Z,25.0270,-80.6810,1.0,30.72,11111222 
ENP,ioos.station.NOAA.NDBC:BOBF1:1,2019-09-16T07:00:00Z,25.0270,-80.6810,1.0,30.5,11111222 
ENP,ioos.station.NOAA.NDBC:BOBF1:1,2019-09-16T08:00:00Z,25.0270,-80.6810,1.0,30.3,11111222 
ENP,ioos.station.NOAA.NDBC:BOBF1:1,2019-09-16T09:00:00Z,25.0270,-80.6810,1.0,30.11,11111222 
ENP,ioos.station.NOAA.NDBC:BOBF1:1,2019-09-16T10:00:00Z,25.0270,-80.6810,1.0,30.02,11111222 
ENP,ioos.station.NOAA.NDBC:BOBF1:1,2019-09-16T11:00:00Z,25.0270,-80.6810,1.0,29.97,11111222 
ENP,ioos.station.NOAA.NDBC:BOBF1:1,2019-09-16T12:00:00Z,25.0270,-80.6810,1.0,29.87,11111222 
ENP,ioos.station.NOAA.NDBC:BOBF1:1,2019-09-16T13:00:00Z,25.0270,-80.6810,1.0,29.89,11111222 
ENP,ioos.station.NOAA.NDBC:BOBF1:1,2019-09-16T14:00:00Z,25.0270,-80.6810,1.0,29.92,11111222 
ENP,ioos.station.NOAA.NDBC:BOBF1:1,2019-09-16T15:00:00Z,25.0270,-80.6810,1.0,29.98,11111222 
ENP,ioos.station.NOAA.NDBC:BOBF1:1,2019-09-16T16:00:00Z,25.0270,-80.6810,1.0,30.24,11111222 
ENP,ioos.station.NOAA.NDBC:BOBF1:1,2019-09-16T17:00:00Z,25.0270,-80.6810,1.0,30.55,11111222 
ENP,ioos.station.NOAA.NDBC:BOBF1:1,2019-09-16T18:00:00Z,25.0270,-80.6810,1.0,30.67,11111222 
ENP,ioos.station.NOAA.NDBC:BOBF1:1,2019-09-16T19:00:00Z,25.0270,-80.6810,1.0,31.07,11111222 
ENP,ioos.station.NOAA.NDBC:BOBF1:1,2019-09-16T20:00:00Z,25.0270,-80.6810,1.0,32.11,11111222 
ENP,ioos.station.NOAA.NDBC:BOBF1:1,2019-09-16T21:00:00Z,25.0270,-80.6810,1.0,32.89,11111222 
ENP,ioos.station.NOAA.NDBC:BOBF1:1,2019-09-16T22:00:00Z,25.0270,-80.6810,1.0,32.06,11111222 
ENP,ioos.station.NOAA.NDBC:BOBF1:1,2019-09-16T23:00:00Z,25.0270,-80.6810,1.0,31.68,11111222 
ENP,ioos.station.NOAA.NDBC:BOBF1:1,2019-09-17T00:00:00Z,25.0270,-80.6810,1.0,31.43,11111222 
ENP,ioos.station.NOAA.NDBC:BOBF1:1,2019-09-17T02:00:00Z,25.0270,-80.6810,1.0,31.08,11111222 
ENP,ioos.station.NOAA.NDBC:BOBF1:1,2019-09-17T04:00:00Z,25.0270,-80.6810,1.0,30.93,11111222 
ENP,ioos.station.NOAA.NDBC:BOBF1:1,2019-09-17T05:00:00Z,25.0270,-80.6810,1.0,30.75,11111222 
ENP,ioos.station.NOAA.NDBC:BOBF1:1,2019-09-17T06:00:00Z,25.0270,-80.6810,1.0,30.38,11111222 
ENP,ioos.station.NOAA.NDBC:BOBF1:1,2019-09-17T07:00:00Z,25.0270,-80.6810,1.0,30.19,11111222 
ENP,ioos.station.NOAA.NDBC:BOBF1:1,2019-09-17T08:00:00Z,25.0270,-80.6810,1.0,29.87,11111222 
ENP,ioos.station.NOAA.NDBC:BOBF1:1,2019-09-17T09:00:00Z,25.0270,-80.6810,1.0,29.8,11111222 
ENP,ioos.station.NOAA.NDBC:BOBF1:1,2019-09-17T10:00:00Z,25.0270,-80.6810,1.0,29.68,11111222 
ENP,ioos.station.NOAA.NDBC:BOBF1:1,2019-09-17T11:00:00Z,25.0270,-80.6810,1.0,29.54,11111222 
ENP,ioos.station.NOAA.NDBC:BOBF1:1,2019-09-17T12:00:00Z,25.0270,-80.6810,1.0,29.68,11111222 
ENP,ioos.station.NOAA.NDBC:BOBF1:1,2019-09-17T13:00:00Z,25.0270,-80.6810,1.0,29.82,11111222 
ENP,ioos.station.NOAA.NDBC:BOBF1:1,2019-09-17T14:00:00Z,25.0270,-80.6810,1.0,30.07,11111222 
ENP,ioos.station.NOAA.NDBC:BOBF1:1,2019-09-17T15:00:00Z,25.0270,-80.6810,1.0,30.33,11111222 
ENP,ioos.station.NOAA.NDBC:BOBF1:1,2019-09-17T16:00:00Z,25.0270,-80.6810,1.0,30.65,11111222 
ENP,ioos.station.NOAA.NDBC:BOBF1:1,2019-09-17T17:00:00Z,25.0270,-80.6810,1.0,30.93,11111222 
ENP,ioos.station.NOAA.NDBC:BOBF1:1,2019-09-17T18:00:00Z,25.0270,-80.6810,1.0,30.92,11111222 
ENP,ioos.station.NOAA.NDBC:BOBF1:1,2019-09-17T19:00:00Z,25.0270,-80.6810,1.0,31.1,11111222 
ENP,ioos.station.NOAA.NDBC:BOBF1:1,2019-09-17T20:00:00Z,25.0270,-80.6810,1.0,31.91,11111222 
ENP,ioos.station.NOAA.NDBC:BOBF1:1,2019-09-17T21:00:00Z,25.0270,-80.6810,1.0,32.67,11111222 
ENP,ioos.station.NOAA.NDBC:BOBF1:1,2019-09-17T22:00:00Z,25.0270,-80.6810,1.0,32.45,11111222 
ENP,ioos.station.NOAA.NDBC:BOBF1:1,2019-09-17T23:00:00Z,25.0270,-80.6810,1.0,32.24,11111222 
ENP,ioos.station.NOAA.NDBC:BOBF1:1,2019-09-18T00:00:00Z,25.0270,-80.6810,1.0,31.87,11111222 
ENP,ioos.station.NOAA.NDBC:BOBF1:1,2019-09-18T02:00:00Z,25.0270,-80.6810,1.0,31.11,11111222 
ENP,ioos.station.NOAA.NDBC:BOBF1:1,2019-09-18T04:00:00Z,25.0270,-80.6810,1.0,31.41,11111222 
ENP,ioos.station.NOAA.NDBC:BOBF1:1,2019-09-18T05:00:00Z,25.0270,-80.6810,1.0,31.3,11111222 
ENP,ioos.station.NOAA.NDBC:BOBF1:1,2019-09-18T06:00:00Z,25.0270,-80.6810,1.0,30.73,11111222 
ENP,ioos.station.NOAA.NDBC:BOBF1:1,2019-09-18T07:00:00Z,25.0270,-80.6810,1.0,30.61,11111222 
ENP,ioos.station.NOAA.NDBC:BOBF1:1,2019-09-18T08:00:00Z,25.0270,-80.6810,1.0,30.33,11111222 
ENP,ioos.station.NOAA.NDBC:BOBF1:1,2019-09-18T09:00:00Z,25.0270,-80.6810,1.0,30.17,11111222 
ENP,ioos.station.NOAA.NDBC:BOBF1:1,2019-09-18T10:00:00Z,25.0270,-80.6810,1.0,30.19,11111222 
ENP,ioos.station.NOAA.NDBC:BOBF1:1,2019-09-18T11:00:00Z,25.0270,-80.6810,1.0,29.9,11111222 
ENP,ioos.station.NOAA.NDBC:BOBF1:1,2019-09-18T12:00:00Z,25.0270,-80.6810,1.0,29.69,11111222 
ENP,ioos.station.NOAA.NDBC:BOBF1:1,2019-09-18T13:00:00Z,25.0270,-80.6810,1.0,29.69,11111222 
ENP,ioos.station.NOAA.NDBC:BOBF1:1,2019-09-18T14:00:00Z,25.0270,-80.6810,1.0,29.98,11111222 
ENP,ioos.station.NOAA.NDBC:BOBF1:1,2019-09-18T15:00:00Z,25.0270,-80.6810,1.0,30.35,11111222 
ENP,ioos.station.NOAA.NDBC:BOBF1:1,2019-09-18T16:00:00Z,25.0270,-80.6810,1.0,30.77,11111222 
ENP,ioos.station.NOAA.NDBC:BOBF1:1,2019-09-18T17:00:00Z,25.0270,-80.6810,1.0,31.1,11111222 
ENP,ioos.station.NOAA.NDBC:BOBF1:1,2019-09-18T18:00:00Z,25.0270,-80.6810,1.0,31.44,11111222 
ENP,ioos.station.NOAA.NDBC:BOBF1:1,2019-09-18T19:00:00Z,25.0270,-80.6810,1.0,31.41,11111222 
ENP,ioos.station.NOAA.NDBC:BOBF1:1,2019-09-18T20:00:00Z,25.0270,-80.6810,1.0,31.07,11111222 
ENP,ioos.station.NOAA.NDBC:BOBF1:1,2019-09-18T21:00:00Z,25.0270,-80.6810,1.0,31.56,11111222 
ENP,ioos.station.NOAA.NDBC:BOBF1:1,2019-09-18T22:00:00Z,25.0270,-80.6810,1.0,31.62,11111222 
ENP,ioos.station.NOAA.NDBC:BOBF1:1,2019-09-18T23:00:00Z,25.0270,-80.6810,1.0,30.51,11111222 
ENP,ioos.station.NOAA.NDBC:BOBF1:1,2019-09-19T00:00:00Z,25.0270,-80.6810,1.0,30.14,11111222 
ENP,ioos.station.NOAA.NDBC:BOBF1:1,2019-09-19T02:00:00Z,25.0270,-80.6810,1.0,29.75,11111222 
ENP,ioos.station.NOAA.NDBC:BOBF1:1,2019-09-19T04:00:00Z,25.0270,-80.6810,1.0,29.4,11111222 
ENP,ioos.station.NOAA.NDBC:BOBF1:1,2019-09-19T05:00:00Z,25.0270,-80.6810,1.0,29.21,11111222 
ENP,ioos.station.NOAA.NDBC:BOBF1:1,2019-09-19T06:00:00Z,25.0270,-80.6810,1.0,29.08,11111222 
ENP,ioos.station.NOAA.NDBC:BOBF1:1,2019-09-19T07:00:00Z,25.0270,-80.6810,1.0,28.98,11111222 
ENP,ioos.station.NOAA.NDBC:BOBF1:1,2019-09-19T08:00:00Z,25.0270,-80.6810,1.0,28.65,11111222 
ENP,ioos.station.NOAA.NDBC:BOBF1:1,2019-09-19T09:00:00Z,25.0270,-80.6810,1.0,28.16,11111222 
ENP,ioos.station.NOAA.NDBC:BOBF1:1,2019-09-19T10:00:00Z,25.0270,-80.6810,1.0,27.73,11111222 
ENP,ioos.station.NOAA.NDBC:BOBF1:1,2019-09-19T11:00:00Z,25.0270,-80.6810,1.0,27.87,11111222 
ENP,ioos.station.NOAA.NDBC:BOBF1:1,2019-09-19T12:00:00Z,25.0270,-80.6810,1.0,28.04,11111222 
ENP,ioos.station.NOAA.NDBC:BOBF1:1,2019-09-19T13:00:00Z,25.0270,-80.6810,1.0,28.15,11111222 
ENP,ioos.station.NOAA.NDBC:BOBF1:1,2019-09-19T14:00:00Z,25.0270,-80.6810,1.0,28.38,11111222 
ENP,ioos.station.NOAA.NDBC:BOBF1:1,2019-09-19T15:00:00Z,25.0270,-80.6810,1.0,28.46,11111222 